Wind_Speed
15 14 13 12 12 12 12 12 12 11 11 10 10 11 11 10 10 10 10 10 10 10 9 9 10 11 12 13 13 13 13 12 12 12 12 13 13 13 13 13 13 12 11 11 11 10 10 9 10 10 11 11 12 13 14 14 15 14 13 13 13 13 13
14 14 12 12 12 12 11 11 11 11 10 9 9 9 9 9 9 9 9 10 10 10 9 10 10 11 11 12 13 13 13 13 13 13 14 14 14 14 14 14 13 12 12 12 12 11 11 11 11 11 11 11 12 13 14 15 14 13 12 13 13 13 12
14 13 12 12 13 12 11 11 10 11 10 9 8 9 9 9 8 8 8 9 9 10 10 11 12 12 13 13 13 13 14 14 14 14 14 14 14 15 15 14 13 13 13 13 13 12 12 12 12 11 10 11 13 13 14 14 13 12 12 13 13 12 11
13 13 13 13 12 11 11 11 11 11 11 10 9 9 10 10 8 8 7 6 7 8 9 11 12 13 14 14 15 15 15 14 13 14 14 13 14 14 14 14 13 13 13 14 13 12 12 12 11 10 10 11 12 13 13 13 13 12 12 12 12 12 11
13 12 12 12 11 11 11 12 12 11 10 11 11 11 12 11 10 9 8 6 5 6 7 9 10 11 12 13 14 15 15 14 13 13 13 13 13 14 13 13 13 13 13 13 12 11 11 11 11 11 11 11 12 13 12 12 12 11 12 12 12 11 10
10 10 10 10 11 11 12 12 12 11 10 11 11 12 13 13 13 13 11 9 8 7 8 8 8 9 10 12 13 14 14 15 14 14 14 14 14 14 13 13 13 13 13 13 12 11 11 12 12 11 10 11 12 12 12 12 12 11 11 11 11 10 9
9 9 10 11 11 12 13 13 12 11 11 11 12 13 14 13 14 14 14 13 12 12 12 12 11 11 11 12 12 13 13 14 15 15 14 14 14 14 13 13 12 13 12 12 11 11 12 12 10 9 10 11 12 11 12 13 12 11 11 10 10 10 9
8 9 10 11 11 12 12 11 11 11 10 10 10 12 13 13 13 14 14 14 15 15 15 15 15 15 14 13 13 12 13 13 14 14 14 14 14 14 13 12 12 12 11 10 10 11 12 11 9 9 11 11 11 12 12 13 12 12 11 10 9 9 9
7 8 9 9 10 10 9 9 10 9 8 8 7 9 12 12 12 12 12 14 15 16 16 16 17 17 16 16 15 14 13 14 14 14 14 14 14 13 12 11 11 10 10 10 11 13 13 11 10 10 11 11 11 11 11 11 11 12 12 11 10 10 9
7 8 10 10 9 9 9 9 9 9 8 6 6 7 8 9 10 9 10 11 12 12 14 15 16 17 18 17 17 16 15 14 14 13 13 13 13 12 12 11 11 11 11 11 12 13 13 12 12 11 11 12 11 11 10 11 11 12 12 13 12 11 11
10 10 11 12 12 12 12 12 11 11 10 8 6 6 7 8 8 8 8 9 9 9 10 12 14 16 17 17 17 17 16 15 14 14 13 13 13 13 12 11 11 11 12 12 12 13 12 11 10 10 11 12 12 11 11 11 11 12 13 14 13 13 13
12 13 13 14 16 17 17 17 15 14 13 12 9 8 8 8 9 9 8 8 7 7 7 9 11 13 15 16 17 17 16 15 15 14 14 13 13 13 12 11 11 11 11 11 12 11 10 9 10 11 12 12 12 12 12 12 12 13 14 14 14 15 15
14 15 15 16 17 18 19 19 17 15 14 13 12 11 10 10 10 9 8 8 7 6 7 8 9 11 13 15 15 15 15 15 15 14 14 13 12 12 11 11 11 11 11 11 10 9 8 8 10 11 11 12 12 12 12 13 14 15 15 14 15 15 14
16 16 17 18 18 18 18 17 15 14 14 14 13 13 12 11 11 10 10 9 8 7 7 8 9 10 11 12 13 14 14 14 14 14 14 13 12 12 12 12 12 11 11 10 9 9 9 9 10 11 12 12 12 12 13 13 15 15 14 14 15 15 13
16 17 18 18 18 18 17 15 14 14 14 14 14 14 13 13 12 11 10 9 8 8 8 8 8 9 9 10 11 12 12 12 12 12 12 12 12 12 12 13 12 12 12 12 11 11 11 11 12 13 13 14 14 14 14 14 15 14 13 13 14 14 13
17 18 19 19 19 18 17 15 15 15 15 15 15 14 14 13 12 12 10 9 9 8 9 9 8 8 8 9 10 10 10 9 9 10 10 10 11 11 12 12 12 13 13 13 13 14 14 13 14 14 14 14 14 14 15 16 15 13 12 13 13 14 14
19 19 20 21 20 19 17 16 16 16 16 16 15 14 13 13 12 12 11 10 10 10 10 10 10 9 9 9 9 9 9 9 9 9 9 10 10 11 11 11 12 12 13 14 14 15 15 15 15 16 15 13 13 14 15 16 15 14 13 14 15 15 15
20 21 23 22 21 20 18 17 17 18 18 17 17 16 14 14 13 13 12 11 11 11 11 12 11 11 11 10 10 10 10 10 10 10 10 10 10 11 11 12 12 12 13 14 14 15 15 15 15 16 16 15 14 14 15 16 17 16 15 16 17 17 17
23 24 24 23 22 21 20 19 20 20 20 19 18 17 16 16 15 15 14 14 13 13 13 13 13 13 13 12 12 12 12 11 11 11 12 12 13 14 14 15 15 14 13 14 14 14 14 14 15 16 17 17 17 16 17 17 18 18 18 18 19 20 20
25 26 26 25 24 22 21 21 21 21 21 20 19 18 18 18 18 17 17 16 15 15 14 14 14 15 15 14 14 14 13 13 14 14 15 16 16 17 17 17 17 16 16 15 16 16 15 15 15 16 17 18 18 19 20 20 20 20 21 21 22 23 24
26 28 28 26 24 23 22 22 22 21 21 20 20 20 19 19 20 19 19 19 17 17 16 16 16 16 16 16 16 16 15 15 16 17 17 18 18 19 19 19 18 18 18 18 17 18 18 18 17 18 19 20 20 21 22 23 23 22 23 24 25 25 26
25 27 27 25 23 22 22 21 21 21 22 22 21 21 21 21 21 20 20 20 19 19 18 18 18 18 17 18 18 17 17 17 18 18 19 20 20 21 22 22 21 21 20 20 20 21 22 22 21 21 21 22 23 23 24 26 26 26 25 25 26 27 28
21 23 24 23 22 22 21 21 21 22 23 23 22 22 22 22 22 22 22 22 21 21 21 20 20 20 20 20 20 19 19 18 19 19 19 20 21 23 24 25 25 24 24 24 25 26 26 26 26 26 25 25 25 25 25 26 28 29 29 28 28 28 29
16 18 20 21 21 22 22 23 23 23 23 23 23 23 24 25 25 25 25 24 23 23 23 22 22 22 22 22 21 21 20 19 19 20 20 21 22 22 24 26 26 26 27 28 28 29 29 29 29 28 28 28 28 28 28 28 29 30 32 31 31 31 31
16 16 18 20 21 22 24 25 25 24 24 24 25 26 27 28 28 27 27 26 25 24 24 24 24 24 24 24 23 23 22 22 21 21 22 22 23 24 26 27 27 27 27 28 30 30 30 30 30 30 30 31 31 31 32 32 32 32 33 34 34 34 34
22 22 22 22 23 25 27 27 27 27 26 27 28 29 29 30 29 28 27 27 26 25 26 26 27 27 27 26 26 25 25 24 24 24 24 24 25 26 26 27 27 28 28 29 30 30 31 31 31 31 32 32 32 33 34 35 36 36 36 37 37 37 36
28 28 27 26 26 28 29 30 31 31 30 30 30 30 30 30 30 29 28 28 27 27 28 29 30 30 30 30 29 29 29 28 27 27 27 27 28 28 28 29 29 30 31 31 31 31 31 31 31 31 32 33 34 36 37 37 38 39 38 38 39 40 39
32 33 33 30 29 30 30 31 32 31 31 31 31 31 31 31 31 31 30 31 31 31 32 32 32 33 33 32 33 33 33 33 32 30 29 29 30 31 32 33 33 34 34 34 34 34 34 34 35 35 35 37 39 40 41 40 40 40 40 39 39 40 40
33 34 35 33 32 32 31 31 31 32 32 33 33 33 33 33 34 34 35 35 36 36 36 36 36 37 37 37 37 38 38 38 37 34 32 31 32 33 35 36 37 39 39 37 37 37 36 37 40 40 40 41 43 43 43 43 42 41 40 40 40 39 39
34 35 36 36 35 34 33 33 33 34 35 36 36 37 37 38 38 38 39 40 41 41 41 41 40 41 42 43 43 43 42 42 41 40 36 34 34 35 37 38 39 41 43 42 41 40 39 40 42 41 41 42 43 44 43 43 43 43 42 41 41 40 39
35 35 36 37 37 37 37 37 37 37 38 39 39 40 40 41 42 42 43 44 45 46 45 45 45 46 47 48 48 47 45 44 44 44 43 40 39 40 41 41 41 42 45 45 44 43 42 42 42 41 41 42 42 42 42 43 44 45 44 43 43 42 41
38 37 38 40 41 41 42 42 41 41 41 41 42 43 43 44 44 46 47 47 48 48 49 49 49 50 51 51 50 49 47 46 46 47 47 47 46 46 46 46 45 45 46 47 47 46 45 45 44 44 44 45 44 42 42 44 46 47 47 46 45 43 42
42 42 43 44 45 46 45 45 45 44 44 44 45 46 47 47 48 49 50 51 51 52 52 52 51 51 51 51 51 49 48 47 48 49 51 51 51 51 51 51 50 48 48 49 49 49 48 48 47 47 48 47 45 45 46 47 49 50 49 47 43 40 39
46 46 47 48 48 49 48 47 47 47 48 48 48 49 50 50 51 52 52 52 53 54 54 53 52 51 51 52 52 51 50 49 50 52 54 55 55 55 56 56 55 53 52 51 51 51 51 51 51 50 49 48 47 48 50 51 53 52 51 48 43 39 38
47 48 49 50 50 50 50 50 49 50 51 52 52 52 52 52 52 52 52 52 53 53 53 53 53 52 53 54 54 54 54 54 56 58 59 59 59 60 60 60 58 57 55 54 53 52 53 53 53 51 50 49 50 52 52 52 52 51 51 50 46 41 38
45 46 47 47 48 49 49 50 50 51 52 52 52 52 52 52 52 53 53 53 54 54 55 55 55 55 56 57 58 59 59 60 61 63 64 64 64 64 64 63 61 59 58 57 56 55 55 54 53 51 49 49 50 50 50 50 51 51 50 48 46 43 39
47 47 48 48 50 51 52 52 53 54 54 54 54 54 54 54 55 55 56 57 58 59 60 61 61 62 63 63 63 63 64 64 65 66 67 67 67 67 67 65 64 63 61 59 58 57 56 54 53 51 49 48 48 48 49 50 52 53 50 47 47 47 45
Wind_Direction
248 264 271 275 280 282 278 272 268 268 267 265 263 260 259 257 253 248 246 247 248 250 250 248 248 247 247 246 245 244 243 241 239 236 235 235 236 236 237 238 239 241 241 246 251 252 251 252 250 250 252 255 259 261 260 258 259 265 271 273 273 273 273
253 257 263 272 278 277 274 272 273 273 270 267 264 259 254 249 246 242 243 245 247 249 248 247 250 252 252 254 254 251 249 244 242 242 240 239 241 243 246 247 248 247 247 249 251 250 251 253 252 252 251 250 252 257 259 261 264 267 269 271 271 273 274
244 247 256 264 267 266 266 266 266 268 268 266 260 255 252 249 244 238 235 238 242 247 249 250 253 256 258 260 259 256 250 247 246 247 245 243 244 247 250 252 252 250 247 248 248 249 252 254 255 254 251 248 248 251 256 260 265 267 267 269 271 273 274
241 246 251 253 253 254 256 257 257 257 261 264 259 253 251 251 250 245 237 234 239 246 249 251 253 256 259 260 260 258 255 253 250 249 250 250 250 252 254 256 254 250 248 247 248 250 253 256 257 256 253 250 249 252 256 259 262 263 265 267 268 270 273
242 243 242 242 243 246 249 252 256 257 258 262 262 255 250 247 245 245 241 231 233 244 250 252 253 257 261 262 264 263 263 262 256 252 253 253 253 253 253 253 252 250 249 249 249 251 253 253 251 251 251 248 248 252 257 259 261 263 265 265 267 269 272
232 230 229 232 235 240 245 249 253 258 259 261 260 256 251 245 241 243 244 240 242 250 256 260 260 259 258 261 265 267 268 267 263 258 255 252 252 250 249 249 248 247 246 246 249 251 251 249 248 248 244 240 242 247 253 256 255 256 259 262 265 269 270
226 229 231 234 236 241 247 251 253 256 257 256 253 250 249 246 242 242 246 249 252 255 258 261 260 257 255 256 260 263 265 265 263 260 255 252 250 247 244 241 239 239 241 245 249 248 248 251 249 238 230 234 239 241 246 252 251 247 248 253 258 263 266
232 232 233 233 234 239 243 248 253 256 255 254 246 240 242 244 243 243 247 251 255 258 259 259 258 256 255 254 253 253 252 252 254 253 250 248 247 246 245 242 241 241 244 246 244 240 246 252 245 229 229 238 240 237 242 250 252 249 248 250 253 256 259
226 226 226 221 219 226 238 248 254 256 255 254 246 235 236 240 242 243 245 249 253 256 257 257 257 257 256 255 253 250 247 245 246 247 247 248 250 251 250 247 245 244 242 238 230 230 237 240 237 234 241 245 239 235 239 245 248 250 251 252 255 258 259
223 230 231 226 220 222 237 249 255 259 258 254 246 236 234 235 236 237 238 244 250 251 252 252 254 254 255 255 254 252 249 246 246 248 249 251 253 253 252 249 246 243 242 237 228 227 229 231 235 242 248 251 246 241 240 243 247 251 254 257 260 264 264
235 236 235 233 231 230 236 243 251 261 263 258 246 234 232 232 234 237 240 245 249 251 252 252 253 254 254 254 253 252 251 250 250 250 251 253 254 255 255 254 253 251 249 245 238 233 230 229 232 237 244 250 253 251 249 249 251 255 259 261 263 265 266
237 238 238 236 235 236 239 244 250 255 257 256 250 241 238 240 243 246 247 250 251 254 259 260 259 259 257 256 255 255 255 254 254 253 253 253 253 255 255 253 250 248 248 246 245 243 240 235 231 233 238 245 252 258 260 261 260 260 261 263 263 264 267
243 244 244 242 240 240 242 245 247 246 247 250 249 245 245 248 251 252 253 256 259 261 264 265 264 264 262 261 260 259 259 258 257 256 256 256 254 253 252 250 248 247 248 250 252 254 253 250 248 248 251 254 258 261 262 263 264 263 263 265 265 264 268
244 246 249 247 245 242 240 240 238 238 242 245 246 247 249 252 253 254 257 260 264 266 264 263 264 265 267 267 265 263 262 262 261 261 261 262 262 261 260 258 256 255 257 260 263 265 266 267 268 269 269 268 266 264 261 259 259 261 264 266 267 266 266
241 242 246 245 241 237 233 230 230 235 239 241 244 247 249 252 253 254 257 261 265 266 262 260 260 261 265 266 267 266 265 265 264 265 266 267 267 267 267 266 267 268 271 273 275 276 277 278 279 278 278 276 274 272 268 264 260 260 260 261 265 268 268
236 238 240 237 233 230 227 226 229 234 237 240 244 248 250 252 253 255 257 261 265 266 264 265 266 265 263 261 261 262 263 264 266 267 269 268 268 269 269 271 273 276 277 277 278 279 278 278 278 278 278 278 278 277 274 270 266 262 258 257 259 262 264
231 233 232 229 226 225 225 227 232 235 239 243 248 251 253 254 256 257 259 262 265 265 266 268 270 270 269 266 265 263 261 262 265 267 268 268 269 271 275 277 279 280 280 280 279 279 279 278 277 276 275 274 274 275 275 274 272 269 265 263 263 262 261
231 230 227 224 223 224 226 230 235 239 243 247 251 252 254 256 259 261 263 266 268 269 272 275 278 280 279 275 274 274 273 273 274 276 277 278 282 285 288 290 290 290 288 286 284 282 281 281 280 279 279 277 274 271 271 273 273 272 269 268 267 265 262
231 229 226 223 222 224 228 232 237 241 245 248 250 249 252 254 257 259 261 264 267 270 275 280 283 286 285 282 282 282 283 284 286 289 292 296 301 304 307 308 308 304 298 291 287 283 282 281 281 281 282 282 281 278 274 273 273 274 274 274 274 274 273
231 227 224 224 224 225 229 233 237 242 244 246 247 247 249 251 253 255 256 259 263 266 271 275 278 280 281 281 283 285 287 289 292 295 298 302 306 310 313 315 314 311 303 295 291 289 287 285 284 284 283 283 283 283 281 279 278 279 281 282 281 280 281
229 225 222 223 226 228 231 234 237 241 243 244 245 246 247 248 250 253 255 257 260 263 266 269 271 274 276 278 281 283 286 289 292 295 297 300 303 306 307 308 308 305 300 296 294 292 291 289 287 284 282 281 281 282 282 281 278 276 277 279 279 278 278
229 226 223 225 228 230 234 237 240 243 245 245 245 245 245 246 249 253 254 256 258 261 265 267 268 270 273 275 277 280 284 287 289 292 295 298 300 301 301 300 299 296 293 290 289 288 289 290 289 286 283 281 280 280 280 279 278 275 273 272 272 274 275
235 233 228 229 230 232 237 241 242 243 243 243 244 244 245 246 248 252 255 256 258 261 264 266 268 269 271 272 274 277 280 282 284 287 291 294 296 297 297 296 295 292 290 287 286 286 287 289 290 289 287 285 284 283 281 280 280 279 276 273 271 272 275
238 237 232 231 232 235 240 241 239 239 240 241 243 245 247 248 250 252 254 256 258 260 262 264 266 267 268 269 271 272 273 276 280 284 288 291 292 292 292 291 290 288 287 286 286 285 286 287 288 288 286 285 285 284 284 282 280 280 279 276 273 273 275
234 235 240 244 242 240 240 238 236 237 240 243 245 247 249 250 251 252 254 255 257 259 262 264 265 264 265 266 266 266 270 275 279 283 286 288 290 290 290 290 288 286 285 284 284 284 284 284 284 283 282 282 282 283 283 282 281 279 279 278 276 274 275
235 237 248 255 250 245 241 239 237 238 241 244 246 248 249 250 251 252 253 254 255 259 262 264 265 264 264 265 265 266 270 274 277 279 283 285 287 287 288 287 286 284 284 283 283 283 283 281 281 280 281 282 283 283 283 283 282 280 278 278 277 277 276
237 243 251 252 245 243 242 239 238 239 242 243 244 245 246 248 249 250 251 252 254 258 261 263 264 264 264 265 266 268 271 272 272 275 280 284 287 288 286 283 281 282 282 283 282 283 283 282 280 280 282 283 284 285 285 284 282 281 279 277 277 277 276
242 247 252 250 244 242 242 240 242 245 247 248 248 248 248 249 250 251 252 253 254 257 259 260 260 261 262 264 266 268 269 269 268 271 277 282 286 289 288 286 283 281 280 280 280 281 282 281 279 280 283 283 283 284 285 284 281 279 278 276 276 277 276
248 251 254 254 251 248 247 246 247 249 250 251 251 251 252 252 252 253 255 255 256 258 260 260 260 260 260 261 264 265 266 265 264 266 271 277 282 286 287 286 284 283 280 279 279 279 280 279 278 281 283 283 282 283 284 283 280 277 276 275 275 276 274
255 257 258 258 257 254 253 253 253 253 253 253 253 253 253 254 254 255 256 257 258 259 261 262 262 262 261 261 262 263 263 261 260 262 265 271 276 280 282 282 281 281 280 279 278 277 277 277 278 280 281 281 282 284 285 284 280 276 274 274 275 274 272
257 257 256 255 254 254 256 258 258 258 257 257 256 256 256 257 257 258 259 260 261 261 262 262 262 263 263 263 264 264 262 259 258 260 264 269 273 277 281 282 280 278 277 277 277 277 277 276 277 278 278 279 280 281 282 281 278 274 273 273 273 272 271
256 256 255 255 256 259 262 264 264 263 263 262 262 261 260 259 259 259 260 262 262 262 262 262 264 264 263 264 265 265 263 260 258 259 264 269 273 276 281 283 281 278 276 275 276 277 276 277 277 277 277 278 277 276 275 274 274 274 274 273 272 271 270
257 258 258 259 262 265 267 268 268 267 267 267 267 267 266 264 262 262 263 263 263 263 262 263 265 265 264 264 265 265 263 261 261 262 265 269 272 275 280 283 283 280 277 275 275 275 276 277 277 277 277 276 274 272 271 273 276 276 274 273 272 268 268
260 261 263 265 267 268 269 270 270 269 269 270 270 270 269 269 268 268 268 267 267 266 266 267 268 268 267 266 267 266 265 264 264 264 266 268 271 275 279 282 282 281 278 276 275 275 275 276 277 277 276 273 271 270 271 274 276 275 273 271 268 266 268
261 263 265 267 268 269 269 269 269 269 269 270 270 270 271 272 273 273 273 273 272 271 271 271 272 272 272 271 271 271 270 270 270 269 269 271 273 276 279 281 281 280 279 277 275 275 275 276 276 276 273 270 269 270 271 272 272 273 273 268 263 264 270
261 262 263 264 265 265 266 266 267 267 268 269 269 270 271 272 271 271 271 271 271 271 271 271 271 272 273 273 273 272 272 272 272 272 272 273 274 275 278 279 279 278 277 277 276 275 275 275 275 274 272 269 269 270 271 269 267 270 272 267 261 265 270
262 262 262 263 263 264 265 265 266 266 267 268 268 268 269 268 268 268 268 269 270 271 271 271 271 271 272 272 272 272 271 271 271 271 272 272 273 274 276 276 276 276 276 276 275 274 274 273 273 272 271 270 269 269 269 268 266 267 269 266 265 269 270
Height
5782 5783 5783 5784 5785 5785 5786 5786 5787 5787 5787 5787 5788 5789 5789 5790 5790 5791 5791 5792 5792 5792 5793 5793 5793 5794 5794 5794 5795 5796 5796 5797 5797 5797 5798 5798 5798 5798 5798 5798 5798 5798 5799 5799 5800 5800 5800 5800 5800 5800 5800 5800 5800 5799 5798 5798 5797 5797 5797 5797 5796 5795 5795
5780 5781 5781 5782 5783 5783 5784 5785 5785 5785 5785 5786 5787 5787 5788 5788 5788 5789 5789 5790 5790 5791 5791 5791 5792 5792 5792 5792 5793 5794 5794 5795 5795 5795 5795 5796 5796 5796 5796 5796 5796 5797 5797 5797 5798 5798 5798 5798 5798 5798 5798 5798 5798 5797 5796 5795 5795 5796 5795 5795 5794 5794 5793
5778 5779 5779 5780 5781 5782 5783 5784 5784 5784 5783 5784 5785 5786 5786 5787 5787 5787 5787 5788 5789 5789 5790 5790 5790 5790 5791 5791 5791 5792 5792 5792 5793 5793 5793 5794 5794 5794 5794 5794 5795 5795 5796 5796 5795 5796 5796 5796 5796 5796 5797 5796 5795 5795 5794 5794 5794 5794 5794 5793 5792 5792 5792
5777 5777 5778 5779 5780 5781 5782 5782 5782 5783 5782 5782 5783 5784 5784 5785 5785 5785 5786 5786 5787 5787 5788 5788 5788 5788 5789 5789 5790 5790 5791 5791 5791 5791 5792 5792 5792 5792 5792 5793 5793 5793 5794 5794 5793 5794 5794 5794 5794 5794 5795 5794 5793 5793 5793 5792 5792 5792 5792 5791 5791 5791 5790
5775 5775 5776 5777 5779 5780 5780 5781 5781 5782 5782 5782 5782 5782 5783 5783 5784 5784 5784 5785 5785 5786 5786 5787 5787 5787 5787 5788 5788 5788 5789 5789 5790 5790 5790 5791 5790 5791 5791 5791 5791 5792 5792 5791 5791 5791 5792 5792 5792 5792 5792 5792 5791 5790 5791 5790 5790 5790 5790 5790 5790 5789 5789
5774 5774 5775 5777 5778 5779 5779 5779 5780 5781 5781 5781 5781 5781 5781 5782 5783 5783 5783 5784 5784 5785 5785 5785 5786 5786 5786 5786 5786 5786 5787 5787 5788 5788 5789 5789 5789 5789 5789 5790 5790 5790 5789 5789 5789 5789 5790 5790 5790 5790 5790 5790 5789 5789 5789 5788 5788 5789 5789 5788 5788 5787 5787
5773 5773 5774 5776 5776 5777 5777 5778 5778 5779 5780 5780 5780 5780 5780 5780 5781 5781 5782 5782 5782 5783 5783 5783 5784 5784 5784 5784 5784 5784 5785 5785 5786 5786 5786 5787 5787 5787 5787 5788 5788 5788 5787 5787 5787 5788 5788 5788 5788 5789 5788 5787 5787 5786 5786 5786 5786 5787 5787 5787 5786 5786 5785
5772 5772 5774 5774 5775 5775 5775 5776 5777 5777 5778 5778 5778 5778 5778 5778 5779 5780 5780 5780 5780 5781 5781 5781 5782 5782 5782 5783 5783 5783 5783 5783 5784 5784 5784 5784 5785 5785 5785 5786 5786 5786 5786 5786 5786 5786 5786 5786 5787 5786 5785 5785 5785 5784 5784 5784 5784 5785 5785 5785 5784 5784 5783
5771 5772 5773 5773 5773 5773 5774 5774 5775 5775 5776 5776 5776 5776 5776 5776 5777 5778 5779 5779 5779 5779 5779 5779 5779 5780 5780 5781 5781 5781 5781 5781 5781 5782 5782 5782 5783 5783 5784 5784 5784 5784 5784 5785 5785 5785 5784 5784 5784 5784 5783 5783 5783 5783 5782 5782 5783 5783 5783 5783 5782 5782 5781
5771 5771 5771 5771 5771 5772 5772 5773 5774 5774 5774 5774 5774 5774 5775 5775 5776 5776 5777 5777 5777 5777 5777 5777 5777 5778 5778 5778 5779 5779 5779 5779 5779 5780 5780 5780 5781 5781 5782 5782 5782 5782 5783 5783 5783 5783 5783 5783 5783 5782 5782 5782 5781 5781 5781 5781 5781 5781 5781 5781 5780 5780 5779
5770 5770 5770 5770 5770 5770 5771 5771 5772 5772 5772 5772 5773 5773 5773 5774 5774 5775 5775 5775 5775 5775 5775 5775 5775 5776 5776 5776 5777 5777 5777 5777 5777 5777 5778 5778 5778 5779 5779 5780 5780 5781 5781 5781 5781 5781 5781 5781 5781 5781 5780 5780 5780 5780 5780 5780 5780 5780 5779 5779 5778 5778 5777
5768 5768 5768 5768 5768 5768 5769 5769 5770 5770 5770 5771 5771 5772 5772 5773 5773 5773 5773 5773 5773 5773 5773 5773 5774 5774 5774 5774 5775 5775 5775 5775 5775 5775 5775 5776 5776 5776 5777 5778 5778 5778 5779 5779 5779 5779 5780 5780 5779 5779 5778 5778 5778 5778 5778 5778 5778 5778 5777 5777 5777 5776 5776
5765 5765 5766 5766 5766 5766 5766 5767 5767 5768 5768 5769 5770 5770 5771 5771 5772 5772 5772 5772 5772 5772 5772 5772 5772 5773 5773 5773 5773 5773 5773 5773 5773 5773 5773 5774 5774 5774 5775 5775 5776 5776 5776 5777 5777 5777 5777 5777 5777 5776 5776 5776 5777 5777 5777 5776 5776 5775 5775 5775 5775 5774 5774
5763 5763 5763 5764 5764 5764 5764 5764 5765 5766 5766 5767 5768 5768 5769 5769 5770 5770 5771 5771 5771 5771 5771 5771 5771 5771 5771 5771 5771 5771 5771 5771 5771 5771 5771 5772 5772 5772 5772 5773 5773 5773 5773 5773 5774 5774 5774 5774 5773 5773 5774 5774 5774 5775 5775 5774 5774 5773 5773 5773 5772 5772 5772
5760 5760 5761 5762 5762 5762 5762 5763 5763 5764 5764 5765 5766 5767 5767 5768 5768 5769 5769 5769 5769 5769 5769 5769 5769 5769 5770 5770 5769 5769 5769 5769 5769 5769 5769 5769 5770 5770 5770 5770 5770 5771 5770 5770 5771 5771 5771 5770 5770 5770 5771 5771 5771 5772 5772 5771 5771 5771 5772 5771 5771 5770 5770
5757 5758 5759 5759 5759 5760 5760 5761 5761 5762 5763 5764 5764 5765 5765 5766 5766 5767 5767 5767 5768 5768 5768 5768 5768 5768 5768 5768 5767 5767 5767 5767 5767 5767 5767 5767 5768 5768 5768 5768 5768 5768 5768 5768 5768 5768 5768 5768 5768 5768 5768 5768 5769 5769 5768 5768 5768 5769 5769 5769 5769 5769 5769
5755 5756 5757 5757 5757 5757 5758 5759 5759 5760 5761 5762 5762 5763 5763 5764 5764 5765 5765 5765 5766 5766 5766 5766 5766 5766 5766 5766 5766 5766 5766 5766 5766 5766 5766 5766 5766 5766 5765 5765 5765 5765 5765 5765 5765 5765 5765 5766 5766 5766 5766 5766 5766 5766 5766 5765 5766 5766 5767 5767 5767 5767 5767
5753 5754 5754 5754 5755 5755 5756 5756 5757 5758 5759 5759 5760 5761 5761 5761 5762 5762 5762 5763 5763 5764 5764 5764 5764 5764 5764 5764 5764 5764 5764 5764 5764 5764 5764 5764 5764 5764 5764 5763 5763 5763 5763 5763 5763 5763 5763 5763 5763 5763 5763 5764 5764 5764 5764 5763 5763 5764 5764 5764 5764 5764 5765
5752 5752 5752 5752 5752 5753 5753 5754 5755 5756 5756 5757 5757 5758 5758 5759 5759 5760 5760 5761 5761 5761 5761 5761 5762 5762 5763 5763 5762 5763 5762 5762 5762 5762 5762 5762 5762 5761 5761 5761 5761 5761 5761 5760 5760 5760 5760 5761 5761 5760 5760 5761 5761 5761 5761 5761 5761 5761 5761 5761 5761 5761 5761
5749 5749 5749 5750 5750 5750 5751 5751 5752 5753 5754 5755 5755 5756 5756 5757 5757 5757 5758 5758 5758 5759 5759 5759 5759 5760 5760 5760 5760 5760 5760 5760 5760 5759 5759 5759 5758 5758 5758 5758 5758 5758 5758 5758 5758 5758 5758 5758 5758 5758 5758 5758 5758 5758 5758 5758 5759 5758 5758 5758 5757 5757 5757
5745 5746 5747 5748 5748 5749 5749 5750 5750 5751 5752 5752 5753 5753 5754 5754 5755 5755 5755 5756 5756 5757 5757 5757 5757 5757 5757 5758 5758 5758 5758 5757 5757 5756 5756 5755 5755 5755 5755 5756 5756 5756 5756 5756 5756 5756 5755 5756 5756 5756 5756 5756 5756 5755 5755 5754 5755 5755 5755 5755 5754 5754 5754
5744 5744 5746 5747 5747 5748 5748 5749 5749 5749 5749 5750 5751 5751 5752 5752 5752 5753 5753 5754 5754 5754 5754 5755 5755 5755 5755 5755 5755 5755 5755 5755 5755 5754 5753 5753 5752 5752 5752 5752 5753 5753 5753 5753 5753 5753 5752 5753 5753 5753 5753 5753 5753 5753 5752 5751 5751 5751 5752 5752 5752 5751 5751
5742 5744 5744 5745 5746 5747 5747 5747 5747 5747 5747 5748 5748 5749 5749 5750 5750 5750 5751 5751 5752 5752 5752 5752 5752 5752 5752 5752 5752 5752 5752 5752 5752 5751 5751 5750 5750 5749 5749 5749 5749 5749 5749 5749 5749 5749 5749 5749 5749 5749 5749 5749 5749 5749 5749 5748 5747 5746 5747 5747 5747 5747 5747
5740 5741 5742 5742 5743 5743 5744 5744 5745 5744 5745 5745 5746 5746 5747 5747 5747 5748 5748 5748 5749 5749 5749 5749 5749 5749 5749 5749 5749 5749 5749 5749 5749 5749 5748 5747 5747 5747 5747 5747 5746 5746 5746 5746 5745 5745 5745 5745 5745 5745 5745 5745 5745 5745 5745 5745 5744 5743 5742 5742 5742 5742 5742
5737 5739 5740 5740 5739 5740 5741 5741 5742 5742 5742 5742 5743 5743 5743 5743 5744 5744 5745 5745 5746 5746 5746 5746 5747 5747 5747 5747 5746 5746 5746 5746 5746 5746 5745 5745 5745 5745 5744 5744 5744 5744 5744 5744 5743 5743 5742 5742 5741 5741 5741 5740 5741 5741 5741 5741 5740 5740 5738 5737 5737 5737 5737
5734 5735 5736 5737 5737 5737 5738 5738 5739 5739 5739 5739 5739 5739 5739 5740 5740 5741 5742 5742 5743 5743 5743 5743 5743 5744 5743 5743 5743 5743 5743 5743 5743 5742 5742 5742 5742 5742 5742 5742 5741 5741 5740 5740 5740 5739 5739 5738 5738 5737 5737 5737 5737 5736 5736 5736 5735 5735 5734 5733 5732 5732 5732
5729 5730 5731 5732 5733 5734 5734 5734 5735 5735 5735 5735 5735 5735 5735 5736 5737 5737 5738 5739 5739 5739 5739 5739 5739 5740 5740 5740 5739 5739 5739 5739 5739 5738 5738 5738 5738 5738 5739 5739 5738 5738 5737 5736 5735 5735 5734 5734 5734 5734 5733 5733 5733 5732 5732 5731 5730 5730 5729 5729 5728 5727 5726
5725 5726 5726 5728 5729 5729 5730 5730 5731 5731 5731 5731 5731 5732 5732 5733 5733 5734 5734 5735 5735 5735 5735 5735 5736 5735 5736 5736 5736 5735 5735 5735 5734 5733 5733 5733 5734 5734 5734 5734 5734 5734 5733 5733 5732 5731 5731 5731 5729 5729 5730 5730 5729 5728 5727 5726 5725 5724 5723 5723 5722 5722 5721
5722 5722 5723 5723 5724 5725 5726 5727 5727 5727 5727 5727 5727 5728 5728 5729 5729 5730 5730 5730 5730 5730 5730 5731 5731 5731 5731 5731 5731 5731 5731 5731 5730 5729 5729 5729 5729 5729 5729 5729 5729 5729 5728 5728 5728 5727 5728 5727 5725 5725 5725 5724 5723 5722 5721 5720 5720 5718 5717 5717 5716 5716 5715
5718 5718 5719 5719 5720 5721 5722 5722 5723 5723 5723 5723 5723 5723 5724 5724 5724 5725 5726 5726 5726 5726 5725 5725 5726 5726 5726 5726 5725 5726 5726 5726 5725 5725 5724 5724 5724 5724 5724 5725 5725 5724 5723 5722 5723 5722 5723 5722 5721 5721 5720 5719 5717 5717 5715 5714 5714 5712 5712 5711 5711 5710 5710
5713 5713 5714 5714 5715 5715 5716 5717 5717 5718 5718 5718 5718 5718 5718 5719 5719 5720 5720 5720 5720 5720 5720 5720 5719 5719 5719 5719 5719 5719 5720 5720 5720 5719 5718 5718 5718 5719 5719 5719 5720 5720 5718 5717 5717 5716 5716 5716 5715 5715 5715 5713 5713 5712 5711 5709 5707 5706 5705 5705 5705 5704 5704
5708 5708 5708 5708 5709 5710 5710 5711 5711 5712 5712 5712 5712 5712 5713 5713 5713 5713 5713 5713 5714 5714 5713 5713 5713 5712 5712 5712 5712 5712 5712 5713 5713 5712 5712 5711 5711 5712 5712 5712 5713 5713 5712 5712 5711 5710 5709 5709 5709 5709 5708 5707 5707 5706 5705 5703 5701 5700 5699 5699 5698 5699 5698
5702 5703 5703 5703 5703 5703 5704 5704 5704 5704 5705 5705 5705 5705 5705 5706 5706 5706 5706 5706 5706 5706 5707 5707 5706 5706 5706 5706 5705 5705 5705 5706 5706 5706 5705 5704 5704 5704 5705 5705 5705 5705 5705 5704 5703 5703 5702 5702 5702 5702 5700 5700 5700 5699 5698 5696 5695 5694 5694 5693 5693 5692 5692
5696 5696 5697 5697 5697 5697 5697 5697 5697 5697 5697 5697 5697 5697 5697 5697 5698 5698 5698 5698 5699 5699 5699 5700 5700 5699 5699 5699 5699 5699 5699 5700 5699 5698 5698 5697 5697 5697 5697 5696 5697 5697 5697 5696 5696 5695 5695 5694 5695 5695 5693 5692 5692 5691 5690 5690 5689 5688 5687 5687 5687 5687 5686
5689 5689 5690 5690 5690 5690 5690 5690 5690 5689 5689 5689 5689 5689 5689 5689 5690 5690 5690 5690 5690 5691 5691 5691 5692 5692 5691 5691 5691 5691 5691 5692 5691 5690 5690 5690 5690 5689 5688 5688 5687 5687 5687 5688 5688 5688 5687 5687 5687 5688 5687 5685 5684 5683 5683 5683 5681 5681 5680 5680 5680 5681 5681
5682 5682 5682 5682 5682 5682 5682 5682 5682 5682 5682 5682 5681 5681 5681 5681 5681 5682 5682 5682 5682 5682 5683 5683 5684 5684 5683 5683 5682 5682 5682 5682 5681 5680 5681 5681 5681 5680 5680 5679 5679 5678 5678 5678 5679 5679 5679 5679 5679 5680 5679 5678 5676 5675 5675 5675 5674 5673 5673 5673 5674 5675 5675
5675 5675 5675 5675 5675 5675 5675 5675 5675 5674 5674 5674 5674 5674 5674 5674 5674 5674 5674 5675 5675 5674 5674 5675 5675 5675 5675 5674 5674 5673 5673 5673 5672 5671 5671 5672 5671 5671 5671 5670 5670 5669 5669 5670 5669 5670 5670 5671 5671 5671 5671 5670 5669 5669 5668 5667 5667 5666 5666 5667 5668 5668 5668